Lid_Strength_Index
-1 -0 0 3 11 12 15 12 9 11 10 7 6 7 8 7 9 12 2 1 0 0 -0 -0 -2 -2 -1 -1 -1 -1 -1 -1 -1 -2 -2 -2 -2 -2 -2 -2 -2 -1 -1 -1 -1 -1 -1 -2 -2
1 1 2 6 13 16 15 10 11 9 7 6 6 6 8 9 5 5 4 1 0 -0 -0 -0 -1 -2 -1 -1 -1 -1 -1 -1 -1 -1 -1 -1 -1 -1 -1 -1 -1 -1 -1 -1 -1 -1 -1 -1 -1
1 1 7 10 13 15 15 10 9 7 6 6 7 5 7 8 4 4 1 0 0 0 -0 -0 -1 -1 -1 -1 -1 -1 -1 -1 -1 -1 -1 -1 -1 -1 -1 -1 -1 -1 -1 -1 -1 -1 -1 -1 -1
2 4 6 12 14 11 11 9 8 8 6 5 6 8 5 3 4 2 1 0 0 0 0 -1 -1 -1 -1 -1 -1 -1 -1 -1 -1 -1 -1 -1 -1 -1 -1 -1 -1 -1 -1 -1 -1 -1 -1 -1 -1
3 6 12 13 12 10 8 7 7 8 7 7 6 9 8 3 2 1 1 0 1 0 0 -0 -2 -1 -1 -1 -1 -1 -1 -1 -1 -1 -1 -1 -1 -1 -1 -1 -1 -1 -1 -1 -1 -1 -1 -1 -1
8 7 13 15 12 9 7 7 7 7 7 7 7 8 7 2 2 2 1 1 0 0 -0 -0 -1 -1 -1 -1 -1 -1 -1 -1 -1 -1 -1 -1 -1 -1 -1 -1 -1 -1 -1 -1 -1 -1 -1 -1 -1
8 10 13 13 12 10 8 6 8 8 8 7 5 9 6 4 2 1 1 0 0 -0 0 0 0 -1 -1 -1 -1 -1 -1 -1 -1 -1 -1 -1 -1 -1 -1 -1 -1 -1 -1 -1 -1 -1 -1 -1 -1
6 9 12 12 12 11 7 6 6 7 8 4 4 9 9 4 2 1 1 1 1 0 0 0 0 0 0 0 -1 -1 -1 -1 -1 -1 -1 -1 -1 -1 -1 -1 -1 -1 -1 -1 -1 -1 -1 -1 -1
4 11 13 12 11 10 6 8 5 4 6 5 4 5 4 2 2 2 2 2 1 1 1 1 1 1 0 0 -0 -1 -1 -1 -1 -1 -1 -1 1 0 -0 -1 -1 -1 -1 -1 -1 -1 -1 -1 -1
8 12 11 8 8 9 6 7 7 7 7 7 6 4 3 3 3 4 4 4 3 2 1 1 1 1 1 -0 0 0 0 1 1 1 1 0 0 1 -0 -1 -1 -1 -1 -1 -2 -1 -1 -1 -0
7 11 8 7 6 6 7 7 5 8 9 7 7 6 4 4 4 4 3 3 3 2 1 1 1 0 0 0 0 0 0 0 0 0 0 1 0 0 0 0 0 0 -1 -0 -1 -0 -0 0 0
9 7 7 6 6 6 7 6 7 7 7 5 4 4 4 4 4 4 4 3 3 2 1 1 1 1 0 0 0 0 0 1 0 0 1 0 0 1 1 1 0 0 0 0 0 -0 -0 -0 -0
8 7 6 5 5 6 5 7 7 7 5 4 4 4 4 4 4 3 3 2 2 2 1 1 0 1 0 0 0 1 0 0 0 0 0 0 0 1 2 1 1 1 -0 0 0 0 0 0 -0
6 6 6 5 6 6 7 7 7 6 5 5 5 5 4 4 4 3 3 3 2 2 2 1 1 1 1 1 1 0 0 0 1 1 0 0 0 1 3 1 1 1 0 -0 0 1 0 1 0
6 8 7 7 6 7 6 9 9 6 5 6 5 5 4 4 4 4 3 3 2 2 1 1 1 1 1 1 1 0 0 0 1 1 1 0 0 1 1 1 1 0 1 0 -0 -0 -0 0 0
8 8 12 8 7 7 8 13 8 5 6 6 6 5 4 4 4 3 2 2 3 2 2 1 0 1 1 1 1 1 0 1 1 1 1 0 0 1 1 1 1 1 1 1 0 0 1 1 1
10 13 12 10 7 8 9 10 7 6 6 7 6 5 5 5 4 4 2 3 2 1 1 1 1 1 1 0 0 1 1 1 1 1 1 0 0 1 1 1 0 0 1 0 0 1 1 1 2
12 13 11 11 9 8 10 10 8 6 6 7 6 6 5 5 4 4 3 2 2 2 1 1 1 1 1 0 1 1 1 1 1 1 1 1 1 1 1 1 1 0 0 1 1 1 1 2 2
10 11 11 10 8 9 10 10 9 7 7 7 7 6 6 5 4 4 3 3 3 2 2 1 2 1 2 2 2 2 2 2 1 1 1 1 1 1 1 1 1 1 1 1 1 1 2 2 1
9 12 13 10 9 9 10 11 9 8 8 7 7 6 6 5 5 5 5 4 3 2 2 2 1 1 1 1 1 1 1 1 1 1 1 1 2 1 1 1 0 0 1 1 1 1 2 2 1
12 12 12 12 10 9 11 13 11 8 7 7 6 6 5 5 5 5 6 4 3 2 2 2 1 1 1 1 1 1 1 1 2 2 2 1 1 1 1 1 1 1 0 1 1 1 2 3 2
15 8 9 11 13 15 11 17 13 10 10 8 7 7 6 5 4 4 5 4 3 2 2 1 1 1 1 1 1 2 2 3 2 2 1 1 1 0 0 0 1 1 1 1 2 1 1 2 3
11 8 10 10 13 14 14 16 13 11 11 9 7 7 6 5 4 4 4 4 2 2 2 1 2 1 1 1 1 2 2 2 2 2 2 2 2 1 0 1 1 2 2 2 2 2 2 2 2
7 9 11 11 13 17 15 15 14 13 11 9 7 7 6 5 4 4 4 4 3 2 2 2 2 2 1 1 1 2 2 2 3 3 3 2 2 1 1 1 2 2 2 2 2 2 2 2 2
10 14 17 16 17 18 15 15 13 9 8 8 8 7 6 5 5 4 4 4 4 3 2 2 2 2 2 1 1 1 2 2 3 3 3 2 2 2 2 2 1 2 1 1 1 2 2 2 2
13 14 16 17 18 17 15 16 13 8 7 6 6 6 6 5 5 4 4 4 4 3 2 2 2 2 2 2 2 1 2 3 3 3 2 3 2 2 1 1 2 2 1 1 2 2 2 2 2
13 13 12 14 16 17 16 13 9 8 8 7 7 6 6 6 5 5 4 4 3 3 3 2 2 2 2 2 1 1 2 4 3 2 2 2 1 1 1 1 2 2 2 2 2 2 2 2 2
11 11 13 15 19 20 17 16 15 11 9 8 8 7 7 6 5 4 4 4 3 3 2 2 2 2 2 2 1 2 3 3 2 3 2 2 1 2 2 2 2 2 2 2 2 2 2 2 2
13 13 14 14 14 17 18 16 10 10 9 8 7 6 7 7 6 6 5 4 3 3 3 2 2 2 2 2 2 3 3 3 2 2 2 2 2 1 2 2 2 2 2 2 2 2 2 3 3
12 13 14 15 16 15 15 14 9 8 8 7 7 6 6 6 6 5 5 5 4 3 3 3 2 2 2 2 2 3 3 3 2 2 2 2 2 2 2 2 2 2 3 3 2 2 2 3 4